Wetterdaten: Mittwoch, 11.02.2015
Datum Zeit Temp. A. Feuchte A. Luftdruck Regen Wind Richtung Richtung Sonnenschein ET UV Solar Taupunkt Windchill Windben Empfang
11.02.2015 00:00 -1,9 C 84 % 1030,6 hPa 0,0 l/m 0,0 km/h (0 Bft) S-SW 203 0 min 0,000 mm 0,0 UV-I 0 W/m -4,2 C -1,9 C 0,0 km/h (0 Bft) 0,00 %
11.02.2015 00:15 -1,9 C 84 % 1030,6 hPa 0,0 l/m 0,0 km/h (0 Bft) S-SW 206 0 min 0,000 mm 0,0 UV-I 0 W/m -4,2 C -1,9 C 0,0 km/h (0 Bft) 0,00 %
11.02.2015 00:30 -1,8 C 84 % 1030,4 hPa 0,0 l/m 0,0 km/h (0 Bft) S-SW 201 0 min 0,000 mm 0,0 UV-I 0 W/m -4,1 C -1,8 C 0,0 km/h (0 Bft) 0,00 %
11.02.2015 00:45 -1,7 C 84 % 1030,0 hPa 0,0 l/m 0,0 km/h (0 Bft) S-SW 197 0 min 0,000 mm 0,0 UV-I 0 W/m -4,0 C -1,7 C 0,0 km/h (0 Bft) 0,00 %
11.02.2015 01:00 -1,6 C 84 % 1030,0 hPa 0,0 l/m 0,0 km/h (0 Bft) S-SW 206 0 min 0,000 mm 0,0 UV-I 0 W/m -3,9 C -1,6 C 0,0 km/h (0 Bft) 0,00 %
11.02.2015 01:15 -1,6 C 83 % 1029,8 hPa 0,0 l/m 0,0 km/h (0 Bft) S-SW 197 0 min 0,000 mm 0,0 UV-I 0 W/m -4,1 C -1,6 C 0,0 km/h (0 Bft) 0,00 %
11.02.2015 01:30 -1,4 C 83 % 1029,7 hPa 0,0 l/m 0,0 km/h (0 Bft) S-SW 206 0 min 0,000 mm 0,0 UV-I 0 W/m -3,9 C -1,4 C 0,0 km/h (0 Bft) 0,00 %
11.02.2015 01:45 -1,3 C 83 % 1029,6 hPa 0,0 l/m 0,0 km/h (0 Bft) S-SW 207 0 min 0,000 mm 0,0 UV-I 0 W/m -3,8 C -1,3 C 0,0 km/h (0 Bft) 0,00 %
11.02.2015 02:00 -1,2 C 83 % 1029,7 hPa 0,0 l/m 0,0 km/h (0 Bft) SW 216 0 min 0,000 mm 0,0 UV-I 0 W/m -3,7 C -1,2 C 0,0 km/h (0 Bft) 0,00 %
11.02.2015 02:15 -1,1 C 83 % 1029,7 hPa 0,0 l/m 0,0 km/h (0 Bft) SW 233 0 min 0,000 mm 0,0 UV-I 0 W/m -3,6 C -1,1 C 0,0 km/h (0 Bft) 0,00 %
11.02.2015 02:30 -1,0 C 82 % 1029,5 hPa 0,0 l/m 0,0 km/h (0 Bft) S-SW 206 0 min 0,000 mm 0,0 UV-I 0 W/m -3,7 C -1,0 C 0,0 km/h (0 Bft) 0,00 %
11.02.2015 02:45 -1,0 C 82 % 1029,4 hPa 0,0 l/m 0,0 km/h (0 Bft) S-SW 208 0 min 0,000 mm 0,0 UV-I 0 W/m -3,7 C -1,0 C 0,0 km/h (0 Bft) 0,00 %
11.02.2015 03:00 -0,9 C 82 % 1029,5 hPa 0,0 l/m 0,0 km/h (0 Bft) S-SW 203 0 min 0,000 mm 0,0 UV-I 0 W/m -3,6 C -0,9 C 0,0 km/h (0 Bft) 0,00 %
11.02.2015 03:15 -0,8 C 82 % 1029,5 hPa 0,0 l/m 0,0 km/h (0 Bft) S-SW 205 0 min 0,000 mm 0,0 UV-I 0 W/m -3,5 C -0,8 C 0,0 km/h (0 Bft) 0,00 %
11.02.2015 03:30 -0,6 C 82 % 1029,4 hPa 0,0 l/m 0,0 km/h (0 Bft) S-SW 199 0 min 0,000 mm 0,0 UV-I 0 W/m -3,3 C -0,6 C 0,0 km/h (0 Bft) 0,00 %
11.02.2015 03:45 -0,7 C 81 % 1029,4 hPa 0,0 l/m 0,0 km/h (0 Bft) S 176 0 min 0,000 mm 0,0 UV-I 0 W/m -3,5 C -0,7 C 0,0 km/h (0 Bft) 0,00 %
11.02.2015 04:00 -0,5 C 81 % 1029,2 hPa 0,0 l/m 0,0 km/h (0 Bft) S-SW 197 0 min 0,000 mm 0,0 UV-I 0 W/m -3,3 C -0,5 C 0,0 km/h (0 Bft) 0,00 %
11.02.2015 04:15 -0,5 C 80 % 1029,3 hPa 0,0 l/m 0,0 km/h (0 Bft) SW 215 0 min 0,000 mm 0,0 UV-I 0 W/m -3,5 C -0,5 C 0,0 km/h (0 Bft) 0,00 %
11.02.2015 04:30 -0,4 C 80 % 1029,4 hPa 0,0 l/m 0,0 km/h (0 Bft) S-SW 192 0 min 0,000 mm 0,0 UV-I 0 W/m -3,4 C -0,4 C 0,0 km/h (0 Bft) 0,00 %
11.02.2015 04:45 -0,5 C 80 % 1028,9 hPa 0,0 l/m 0,0 km/h (0 Bft) S-SW 195 0 min 0,000 mm 0,0 UV-I 0 W/m -3,5 C -0,5 C 0,0 km/h (0 Bft) 0,00 %
11.02.2015 05:00 -0,4 C 80 % 1029,2 hPa 0,0 l/m 0,0 km/h (0 Bft) SW 217 0 min 0,000 mm 0,0 UV-I 0 W/m -3,4 C -0,4 C 0,0 km/h (0 Bft) 0,00 %
11.02.2015 05:15 -0,4 C 80 % 1029,2 hPa 0,0 l/m 0,0 km/h (0 Bft) S-SW 211 0 min 0,000 mm 0,0 UV-I 0 W/m -3,4 C -0,4 C 0,0 km/h (0 Bft) 0,00 %
11.02.2015 05:30 -0,4 C 80 % 1028,8 hPa 0,0 l/m 0,0 km/h (0 Bft) S-SW 205 0 min 0,000 mm 0,0 UV-I 0 W/m -3,4 C -0,4 C 0,0 km/h (0 Bft) 0,00 %
11.02.2015 05:45 -0,3 C 80 % 1028,7 hPa 0,0 l/m 0,0 km/h (0 Bft) S-SW 196 0 min 0,000 mm 0,0 UV-I 0 W/m -3,3 C -0,3 C 0,0 km/h (0 Bft) 0,00 %
11.02.2015 06:00 -0,4 C 80 % 1029,0 hPa 0,0 l/m 0,0 km/h (0 Bft) S 190 0 min 0,000 mm 0,0 UV-I 0 W/m -3,4 C -0,4 C 0,0 km/h (0 Bft) 0,00 %
11.02.2015 06:15 -0,4 C 80 % 1028,6 hPa 0,0 l/m 0,0 km/h (0 Bft) S-SW 194 0 min 0,000 mm 0,0 UV-I 0 W/m -3,4 C -0,4 C 0,0 km/h (0 Bft) 0,00 %
11.02.2015 06:30 -0,3 C 79 % 1028,7 hPa 0,0 l/m 0,0 km/h (0 Bft) S 187 0 min 0,000 mm 0,0 UV-I 0 W/m -3,5 C -0,3 C 0,0 km/h (0 Bft) 0,00 %
11.02.2015 06:45 -0,1 C 77 % 1028,7 hPa 0,0 l/m 0,0 km/h (0 Bft) S 190 0 min 0,000 mm 0,0 UV-I 0 W/m -3,6 C -0,1 C 0,0 km/h (0 Bft) 0,00 %
11.02.2015 07:00 -0,2 C 77 % 1028,8 hPa 0,0 l/m 0,0 km/h (0 Bft) S-SW 196 0 min 0,000 mm 0,0 UV-I 0 W/m -3,7 C -0,2 C 0,0 km/h (0 Bft) 0,00 %
11.02.2015 07:15 -0,2 C 78 % 1028,8 hPa 0,0 l/m 0,0 km/h (0 Bft) S-SW 208 0 min 0,000 mm 0,0 UV-I 0 W/m -3,6 C -0,2 C 0,0 km/h (0 Bft) 0,00 %
11.02.2015 07:30 -0,1 C 77 % 1028,6 hPa 0,0 l/m 0,0 km/h (0 Bft) S-SW 207 0 min 0,000 mm 0,0 UV-I 0 W/m -3,6 C -0,1 C 0,0 km/h (0 Bft) 0,00 %
11.02.2015 07:45 0,1 C 75 % 1028,8 hPa 0,0 l/m 0,0 km/h (0 Bft) W-SW 240 0 min 0,000 mm 0,0 UV-I 7 W/m -3,8 C 0,1 C 0,0 km/h (0 Bft) 0,00 %
11.02.2015 08:00 0,3 C 72 % 1028,9 hPa 0,0 l/m 0,0 km/h (0 Bft) SW 220 0 min 0,000 mm 0,0 UV-I 21 W/m -4,1 C 0,3 C 0,0 km/h (0 Bft) 0,00 %
11.02.2015 08:15 0,5 C 73 % 1028,9 hPa 0,0 l/m 0,0 km/h (0 Bft) S-SW 196 0 min 0,000 mm 1,0 UV-I 33 W/m -3,8 C 0,5 C 0,0 km/h (0 Bft) 0,00 %
11.02.2015 08:30 0,7 C 73 % 1028,8 hPa 0,0 l/m 0,0 km/h (0 Bft) SW 215 0 min 0,000 mm 1,0 UV-I 44 W/m -3,6 C 0,7 C 0,0 km/h (0 Bft) 0,00 %
11.02.2015 08:45 0,7 C 71 % 1028,8 hPa 0,0 l/m 0,0 km/h (0 Bft) SW 215 0 min 0,000 mm 1,0 UV-I 55 W/m -3,9 C 0,7 C 0,0 km/h (0 Bft) 0,00 %
11.02.2015 09:00 1,0 C 71 % 1028,6 hPa 0,0 l/m 0,0 km/h (0 Bft) S-SW 192 0 min 0,000 mm 1,0 UV-I 72 W/m -3,7 C 1,0 C 0,0 km/h (0 Bft) 0,00 %
11.02.2015 09:15 1,3 C 70 % 1028,6 hPa 0,0 l/m 0,0 km/h (0 Bft) SW 221 0 min 0,000 mm 1,0 UV-I 80 W/m -3,6 C 1,3 C 0,0 km/h (0 Bft) 0,00 %
11.02.2015 09:30 1,3 C 69 % 1028,8 hPa 0,0 l/m 0,0 km/h (0 Bft) S 190 0 min 0,000 mm 1,0 UV-I 88 W/m -3,7 C 1,3 C 0,0 km/h (0 Bft) 0,00 %
11.02.2015 09:45 1,0 C 70 % 1028,6 hPa 0,0 l/m 0,7 km/h (0 Bft) O 100 0 min 0,000 mm 1,0 UV-I 98 W/m -3,8 C 1,0 C 4,0 km/h (1 Bft) 0,00 %
11.02.2015 10:00 1,0 C 70 % 1028,6 hPa 0,0 l/m 0,0 km/h (0 Bft) SO 141 0 min 0,000 mm 1,0 UV-I 102 W/m -3,8 C 1,0 C 0,0 km/h (0 Bft) 0,00 %
11.02.2015 10:15 1,5 C 68 % 1028,4 hPa 0,0 l/m 0,0 km/h (0 Bft) S-SW 212 0 min 0,000 mm 1,0 UV-I 117 W/m -3,7 C 1,5 C 0,0 km/h (0 Bft) 0,00 %
11.02.2015 10:30 1,6 C 68 % 1028,4 hPa 0,0 l/m 0,0 km/h (0 Bft) NO 50 0 min 0,000 mm 1,0 UV-I 124 W/m -3,7 C 1,6 C 0,0 km/h (0 Bft) 0,00 %
11.02.2015 10:45 1,5 C 67 % 1028,4 hPa 0,0 l/m 0,0 km/h (0 Bft) SW 214 0 min 0,000 mm 2,0 UV-I 142 W/m -3,9 C 1,5 C 0,0 km/h (0 Bft) 0,00 %
11.02.2015 11:00 1,3 C 68 % 1028,4 hPa 0,0 l/m 0,0 km/h (0 Bft) O-SO 104 0 min 0,000 mm 1,0 UV-I 154 W/m -3,9 C 1,3 C 0,0 km/h (0 Bft) 0,00 %
11.02.2015 11:15 1,4 C 69 % 1028,3 hPa 0,0 l/m 0,0 km/h (0 Bft) W 280 0 min 0,000 mm 2,0 UV-I 145 W/m -3,7 C 1,4 C 0,0 km/h (0 Bft) 0,00 %
11.02.2015 11:30 1,3 C 69 % 1028,1 hPa 0,0 l/m 0,0 km/h (0 Bft) N-NW 336 0 min 0,000 mm 2,0 UV-I 145 W/m -3,7 C 1,3 C 0,0 km/h (0 Bft) 0,00 %
11.02.2015 11:45 1,5 C 67 % 1028,0 hPa 0,0 l/m 1,8 km/h (1 Bft) O 97 0 min 0,000 mm 2,0 UV-I 156 W/m -3,9 C 1,5 C 4,0 km/h (1 Bft) 0,00 %
11.02.2015 12:00 1,5 C 68 % 1027,8 hPa 0,0 l/m 0,4 km/h (0 Bft) NO 56 0 min 0,000 mm 2,0 UV-I 164 W/m -3,7 C 1,5 C 4,0 km/h (1 Bft) 0,00 %
11.02.2015 12:15 1,6 C 67 % 1027,7 hPa 0,0 l/m 0,0 km/h (0 Bft) SO 130 0 min 0,000 mm 2,0 UV-I 161 W/m -3,9 C 1,6 C 0,0 km/h (0 Bft) 0,00 %
11.02.2015 12:30 1,5 C 67 % 1027,6 hPa 0,0 l/m 1,8 km/h (1 Bft) O-SO 119 0 min 0,000 mm 2,0 UV-I 160 W/m -3,9 C 1,5 C 4,0 km/h (1 Bft) 0,00 %
11.02.2015 12:45 1,3 C 69 % 1027,5 hPa 0,0 l/m 4,0 km/h (1 Bft) O-SO 108 0 min 0,000 mm 2,0 UV-I 157 W/m -3,7 C 1,3 C 7,9 km/h (2 Bft) 0,00 %
11.02.2015 13:00 1,3 C 69 % 1027,6 hPa 0,0 l/m 0,0 km/h (0 Bft) O-SO 107 0 min 0,000 mm 2,0 UV-I 152 W/m -3,7 C 1,3 C 0,0 km/h (0 Bft) 0,00 %
11.02.2015 13:15 1,4 C 68 % 1027,4 hPa 0,0 l/m 0,0 km/h (0 Bft) S 184 0 min 0,000 mm 2,0 UV-I 154 W/m -3,8 C 1,4 C 0,0 km/h (0 Bft) 0,00 %
11.02.2015 13:30 2,1 C 65 % 1027,0 hPa 0,0 l/m 0,0 km/h (0 Bft) S 179 0 min 0,000 mm 2,0 UV-I 177 W/m -3,8 C 2,1 C 0,0 km/h (0 Bft) 0,00 %
11.02.2015 13:45 1,2 C 69 % 1027,0 hPa 0,0 l/m 0,4 km/h (0 Bft) O-NO 69 0 min 0,000 mm 1,0 UV-I 151 W/m -3,8 C 1,2 C 4,0 km/h (1 Bft) 0,00 %
11.02.2015 14:00 1,5 C 68 % 1026,9 hPa 0,0 l/m 5,4 km/h (1 Bft) O-SO 111 0 min 0,000 mm 1,0 UV-I 147 W/m -3,7 C 1,5 C 7,9 km/h (2 Bft) 0,00 %
11.02.2015 14:15 1,2 C 69 % 1026,8 hPa 0,0 l/m 1,8 km/h (1 Bft) O-SO 107 0 min 0,000 mm 1,0 UV-I 145 W/m -3,8 C 1,2 C 4,0 km/h (1 Bft) 0,00 %
11.02.2015 14:30 1,2 C 69 % 1026,9 hPa 0,0 l/m 0,0 km/h (0 Bft) SO 141 0 min 0,000 mm 1,0 UV-I 120 W/m -3,8 C 1,2 C 0,0 km/h (0 Bft) 0,00 %
11.02.2015 14:45 0,9 C 70 % 1026,5 hPa 0,0 l/m 0,4 km/h (0 Bft) S 185 0 min 0,000 mm 1,0 UV-I 107 W/m -3,9 C 0,9 C 4,0 km/h (1 Bft) 0,00 %
11.02.2015 15:00 1,0 C 70 % 1026,5 hPa 0,0 l/m 3,2 km/h (1 Bft) O-SO 109 0 min 0,000 mm 1,0 UV-I 103 W/m -3,8 C 1,0 C 7,9 km/h (2 Bft) 0,00 %
11.02.2015 15:15 1,0 C 70 % 1026,4 hPa 0,0 l/m 0,4 km/h (0 Bft) S 172 0 min 0,000 mm 1,0 UV-I 97 W/m -3,8 C 1,0 C 4,0 km/h (1 Bft) 0,00 %
11.02.2015 15:30 1,0 C 69 % 1026,3 hPa 0,0 l/m 3,2 km/h (1 Bft) O-SO 105 0 min 0,000 mm 1,0 UV-I 82 W/m -4,0 C 1,0 C 4,0 km/h (1 Bft) 0,00 %
11.02.2015 15:45 0,7 C 70 % 1026,3 hPa 0,0 l/m 0,4 km/h (0 Bft) S-SO 152 0 min 0,000 mm 1,0 UV-I 69 W/m -4,1 C 0,7 C 4,0 km/h (1 Bft) 0,00 %
11.02.2015 16:00 0,6 C 70 % 1026,3 hPa 0,0 l/m 4,0 km/h (1 Bft) O-SO 103 0 min 0,000 mm 1,0 UV-I 54 W/m -4,2 C 0,6 C 4,0 km/h (1 Bft) 0,00 %
11.02.2015 16:15 0,7 C 70 % 1026,0 hPa 0,0 l/m 0,0 km/h (0 Bft) O-SO 122 0 min 0,000 mm 1,0 UV-I 46 W/m -4,1 C 0,7 C 0,0 km/h (0 Bft) 0,00 %
11.02.2015 16:30 0,5 C 70 % 1026,4 hPa 0,0 l/m 0,4 km/h (0 Bft) SO 127 0 min 0,000 mm 0,0 UV-I 30 W/m -4,3 C 0,5 C 4,0 km/h (1 Bft) 0,00 %
11.02.2015 16:45 0,4 C 72 % 1026,3 hPa 0,0 l/m 0,0 km/h (0 Bft) S 191 0 min 0,000 mm 0,0 UV-I 20 W/m -4,0 C 0,4 C 0,0 km/h (0 Bft) 0,00 %
11.02.2015 17:00 0,4 C 72 % 1026,4 hPa 0,0 l/m 0,0 km/h (0 Bft) S 185 0 min 0,000 mm 0,0 UV-I 5 W/m -4,0 C 0,4 C 0,0 km/h (0 Bft) 0,00 %
11.02.2015 17:15 0,2 C 73 % 1026,4 hPa 0,0 l/m 6,5 km/h (2 Bft) O-SO 102 0 min 0,000 mm 0,0 UV-I 0 W/m -4,1 C 0,1 C 7,9 km/h (2 Bft) 0,00 %
11.02.2015 17:30 0,2 C 73 % 1026,7 hPa 0,0 l/m 0,0 km/h (0 Bft) S 188 0 min 0,000 mm 0,0 UV-I 0 W/m -4,1 C 0,2 C 0,0 km/h (0 Bft) 0,00 %
11.02.2015 17:45 0,2 C 73 % 1026,7 hPa 0,0 l/m 0,0 km/h (0 Bft) S 183 0 min 0,000 mm 0,0 UV-I 0 W/m -4,1 C 0,2 C 0,0 km/h (0 Bft) 0,00 %
11.02.2015 18:00 0,2 C 74 % 1027,0 hPa 0,0 l/m 0,0 km/h (0 Bft) S 173 0 min 0,000 mm 0,0 UV-I 0 W/m -3,9 C 0,2 C 0,0 km/h (0 Bft) 0,00 %
11.02.2015 18:15 0,2 C 73 % 1027,0 hPa 0,0 l/m 0,0 km/h (0 Bft) S 175 0 min 0,000 mm 0,0 UV-I 0 W/m -4,1 C 0,2 C 0,0 km/h (0 Bft) 0,00 %
11.02.2015 18:30 0,2 C 73 % 1026,9 hPa 0,0 l/m 0,0 km/h (0 Bft) O 95 0 min 0,000 mm 0,0 UV-I 0 W/m -4,1 C 0,2 C 0,0 km/h (0 Bft) 0,00 %
11.02.2015 18:45 0,2 C 73 % 1027,0 hPa 0,0 l/m 0,0 km/h (0 Bft) S 178 0 min 0,000 mm 0,0 UV-I 0 W/m -4,1 C 0,2 C 0,0 km/h (0 Bft) 0,00 %
11.02.2015 19:00 0,1 C 73 % 1027,0 hPa 0,0 l/m 0,0 km/h (0 Bft) S-SO 152 0 min 0,000 mm 0,0 UV-I 0 W/m -4,2 C 0,1 C 0,0 km/h (0 Bft) 0,00 %
11.02.2015 19:15 0,1 C 73 % 1026,8 hPa 0,0 l/m 0,4 km/h (0 Bft) S 172 0 min 0,000 mm 0,0 UV-I 0 W/m -4,2 C 0,1 C 4,0 km/h (1 Bft) 0,00 %
11.02.2015 19:30 0,1 C 73 % 1026,8 hPa 0,0 l/m 6,5 km/h (2 Bft) O-SO 104 0 min 0,000 mm 0,0 UV-I 0 W/m -4,2 C 0,0 C 7,9 km/h (2 Bft) 0,00 %
11.02.2015 19:45 0,1 C 73 % 1027,0 hPa 0,0 l/m 0,0 km/h (0 Bft) S 172 0 min 0,000 mm 0,0 UV-I 0 W/m -4,2 C 0,1 C 0,0 km/h (0 Bft) 0,00 %
11.02.2015 20:00 0,1 C 74 % 1027,0 hPa 0,0 l/m 0,4 km/h (0 Bft) S 169 0 min 0,000 mm 0,0 UV-I 0 W/m -4,0 C 0,1 C 4,0 km/h (1 Bft) 0,00 %
11.02.2015 20:15 0,0 C 75 % 1027,2 hPa 0,0 l/m 0,0 km/h (0 Bft) S 175 0 min 0,000 mm 0,0 UV-I 0 W/m -3,9 C 0,0 C 0,0 km/h (0 Bft) 0,00 %
11.02.2015 20:30 -0,1 C 75 % 1027,2 hPa 0,0 l/m 0,0 km/h (0 Bft) SO 143 0 min 0,000 mm 0,0 UV-I 0 W/m -4,0 C -0,1 C 0,0 km/h (0 Bft) 0,00 %
11.02.2015 20:45 -0,1 C 75 % 1027,2 hPa 0,0 l/m 0,0 km/h (0 Bft) S 191 0 min 0,000 mm 0,0 UV-I 0 W/m -4,0 C -0,1 C 0,0 km/h (0 Bft) 0,00 %
11.02.2015 21:00 -0,1 C 75 % 1027,2 hPa 0,0 l/m 0,0 km/h (0 Bft) S-SW 196 0 min 0,000 mm 0,0 UV-I 0 W/m -4,0 C -0,1 C 0,0 km/h (0 Bft) 0,00 %
11.02.2015 21:15 -0,2 C 76 % 1027,1 hPa 0,0 l/m 0,0 km/h (0 Bft) N-NO 20 0 min 0,000 mm 0,0 UV-I 0 W/m -3,9 C -0,2 C 0,0 km/h (0 Bft) 0,00 %
11.02.2015 21:30 -0,2 C 76 % 1027,1 hPa 0,0 l/m 0,0 km/h (0 Bft) N-NO 20 0 min 0,000 mm 0,0 UV-I 0 W/m -3,9 C -0,2 C 0,0 km/h (0 Bft) 0,00 %
11.02.2015 21:45 -0,1 C 75 % 1026,9 hPa 0,0 l/m 0,7 km/h (0 Bft) SO 127 0 min 0,000 mm 0,0 UV-I 0 W/m -4,0 C -0,1 C 4,0 km/h (1 Bft) 0,00 %
11.02.2015 22:00 0,0 C 75 % 1026,9 hPa 0,0 l/m 1,4 km/h (1 Bft) O 96 0 min 0,000 mm 0,0 UV-I 0 W/m -3,9 C 0,0 C 4,0 km/h (1 Bft) 0,00 %
11.02.2015 22:15 0,0 C 75 % 1026,9 hPa 0,0 l/m 0,0 km/h (0 Bft) SO 132 0 min 0,000 mm 0,0 UV-I 0 W/m -3,9 C 0,0 C 0,0 km/h (0 Bft) 0,00 %
11.02.2015 22:30 0,0 C 75 % 1026,9 hPa 0,0 l/m 0,0 km/h (0 Bft) S-SW 202 0 min 0,000 mm 0,0 UV-I 0 W/m -3,9 C 0,0 C 0,0 km/h (0 Bft) 0,00 %
11.02.2015 22:45 0,0 C 75 % 1026,7 hPa 0,0 l/m 0,4 km/h (0 Bft) O-SO 121 0 min 0,000 mm 0,0 UV-I 0 W/m -3,9 C 0,0 C 4,0 km/h (1 Bft) 0,00 %
11.02.2015 23:00 0,0 C 75 % 1026,8 hPa 0,0 l/m 0,0 km/h (0 Bft) W-SW 251 0 min 0,000 mm 0,0 UV-I 0 W/m -3,9 C 0,0 C 0,0 km/h (0 Bft) 0,00 %
11.02.2015 23:15 0,0 C 75 % 1026,7 hPa 0,0 l/m 0,0 km/h (0 Bft) O-SO 122 0 min 0,000 mm 0,0 UV-I 0 W/m -3,9 C 0,0 C 0,0 km/h (0 Bft) 0,00 %
11.02.2015 23:30 0,0 C 75 % 1026,5 hPa 0,0 l/m 2,2 km/h (1 Bft) SO 130 0 min 0,000 mm 0,0 UV-I 0 W/m -3,9 C 0,0 C 4,0 km/h (1 Bft) 0,00 %
11.02.2015 23:45 0,0 C 75 % 1026,7 hPa 0,0 l/m 0,4 km/h (0 Bft) O-SO 119 0 min 0,000 mm 0,0 UV-I 0 W/m -3,9 C 0,0 C 4,0 km/h (1 Bft) 0,00 %
_ Min-Zeit 00:00 13:30 16:15 - 00:00 - - - - - - 16:30 00:00 00:00 00:00
Minimum _ -1,9 C 65 % 1026,0 hPa - 0,0 km/h (0 Bft) - - - - - - -4,3 C -1,9 C 0,0 km/h (0 Bft) 0,00 %
_ Max-Zeit 13:30 00:00 00:00 00:00 17:15 - - 00:00 00:00 10:45 13:30 03:30 13:30 12:45 00:00
Maximum _ 2,1 C 84 % 1030,6 hPa 0,0 l/m 6,5 km/h
O-SO (2 Bft)
- - 0 min 0,000 mm 2,0 UV-I 177 W/m -3,3 C 2,1 C 7,9 km/h
O-SO (2 Bft)
0,00 %
Durchschnitt _ 0,2 C 75 % 1028,0 hPa #0,0 l/m 0,5 km/h (0 Bft) O-SO - #0 min. #0,000 mm 1,3 UV-I 102 W/m -3,8 C 0,2 C 1,2 km/h (1 Bft) 0,00 %